Location: �perlecques
(50.8057°N, 2.1521°E)
Time: 02:50:08
(UTC+00:00)

Thor Agena Rocket - Pass Details

Date: 09 April 2020
Orbit: 760 x 807 km, 99.0° (Epoch: 26 May)

Event Time Altitude Azimuth Distance (km) Brightness Sun altitude
Rises 23:10:01 0° 11° (NNE) 3,242 7.7 -30.4°
Reaches altitude 10° 23:12:23 10° 6° (N) 2,315 6.8 -30.5°
Enters shadow 23:16:56 47° 305° (NW) 1,021 4.3 -30.7°
